This is the latest recevied weather packets stored in our database for station/object DK0KTL-4. If no packets are shown the sender has not sent any weather packets the latest 10 day(s).
| Time | Temp. | Humidity | Pressure | Rain* | Wind** | Luminosity | Snow |
|---|---|---|---|---|---|---|---|
| 1777704985 | 11.67° C | 69% | 1022.8 hPa | 0 mm | - | - | - |
| 1777704685 | 11.11° C | 70% | 1022.7 hPa | 0 mm | - | - | - |
| 1777703784 | 10° C | 73% | 1022.8 hPa | 0 mm | - | - | - |
| 1777703183 | 8.89° C | 75% | 1022.9 hPa | 0 mm | - | - | - |
| 1777702883 | 8.33° C | 77% | 1022.8 hPa | 0 mm | - | - | - |
| 1777702283 | 7.78° C | 80% | 1023 hPa | 0 mm | - | - | - |
| 1777701682 | 7.22° C | 82% | 1023.1 hPa | 0 mm | - | - | - |
| 1777701382 | 6.67° C | 83% | 1023.1 hPa | 0 mm | - | - | - |
| 1777700481 | 6.11° C | 84% | 1023.3 hPa | 0 mm | - | - | - |
| 1777700180 | 6.11° C | 84% | 1023.2 hPa | 0 mm | - | - | - |
| 1777699880 | 6.11° C | 85% | 1023.2 hPa | 0 mm | - | - | - |
| 1777699580 | 6.11° C | 85% | 1023.2 hPa | 0 mm | - | - | - |
| 1777698979 | 5.56° C | 86% | 1023.3 hPa | 0 mm | - | - | - |
| 1777698679 | 5.56° C | 87% | 1023.2 hPa | 0 mm | - | - | - |
| 1777698078 | 5° C | 88% | 1023.2 hPa | 0 mm | - | - | - |
| 1777697778 | 5° C | 89% | 1023.3 hPa | 0 mm | - | - | - |
| 1777697478 | 4.44° C | 89% | 1023.3 hPa | 0 mm | - | - | - |
| 1777696577 | 4.44° C | 89% | 1023.2 hPa | 0 mm | - | - | - |
| 1777696277 | 4.44° C | 88% | 1023.1 hPa | 0 mm | - | - | - |
| 1777695976 | 4.44° C | 88% | 1023.2 hPa | 0 mm | - | - | - |
| 1777695676 | 4.44° C | 88% | 1023.3 hPa | 0 mm | - | - | - |
| 1777695376 | 4.44° C | 88% | 1023.1 hPa | 0 mm | - | - | - |
| 1777694775 | 4.44° C | 88% | 1023.3 hPa | 0 mm | - | - | - |
| 1777694175 | 5° C | 87% | 1023.4 hPa | 0 mm | - | - | - |
| 1777693874 | 5° C | 87% | 1023.4 hPa | 0 mm | - | - | - |
* Rain latest hour (hover to see other rain measurements)
** Current wind speed in m/s (hover to see current wind gust speed)